Torna al catalogo

STARLINK-2107

AttivoComunicazioniVLEO
NORAD 47723·PAYLOAD·🇺🇸 United States

Lanciato Mar 4, 2021 da Cape Canaveral Space Force Station

Loading…

Prossimi Passaggi (prossime 24 ore)

TLE

AggiornatoSource: CelesTrak SupGP

Epoca: Sep 15, 2026, 01:06 UTC

1 47723C 21017B   26258.04631944  .00066832  00000+0  17652-2 0  2583
2 47723  53.1605 324.2036 0003076  30.1340 353.5711 15.37840022    10

Traccia STARLINK-2107 in tempo reale con AllMySat

Download on the App Store